Weather in Marianivka

Ukraine / Zaporizhia Region     47°25′33″N   36°53′00″E
temp.,
°C
wind,
m/s
gust,
m/s
humid.,
%
clouds,
%
prec.,
mm/h
press.,
hPa
HPBL,
m
2 march, tue
tue223:000nnw238327 0.0 102861
02:00−1nw238513 0.0 102957
05:00−1w34900 0.0 102896
08:00+1w467518 0.0 1028343
11:00+4w695937 0.0 1026947
14:00+4w8106158 0.0 1023914
17:00+3wsw61273100 0.0 1021753
20:00+2wsw8157890 0.0 1020695
3 march, wed
wed323:00+2wnw71293100 0.1 1018733
02:000wnw71297100 0.9 1017587
05:00+1nw81289100 0.2 1018896
08:00+1nnw71079100 0.3 10211011
11:00+2nw796995 0.1 10221100
14:00+4nw7105896 0.1 10231522
17:00+2nw486462 0.0 1024322
20:000wnw367131 0.0 1026130
4 march, thu
thu423:000w35740 0.0 1026110
02:00−1wsw36810 0.0 1025115
05:00−1wsw48790 0.0 1024186
08:00+2wsw610660 0.0 1023512
11:00+6wsw710520 0.0 10211114
14:00+7wsw811550 0.0 10181184
17:00+5sw612660 0.0 1016571
20:00+3sw8157422 0.0 1016524
5 march, fri
fri523:00+3sw7168196 0.0 1015532
02:00+2sw7158668 0.0 1015510
05:00+1sw6139120 0.0 1014440
08:00+3sw6108854 0.0 1014493
11:00+6sw7982100 0.0 1014560
14:00+8ssw71071100 0.0 1013677
17:00+6ssw6117299 0.0 1012486
20:00+4ssw61384100 0.0 1012344
6 march, sat
sat623:00+3ssw6139181 0.0 1011303
02:00+3sw5109462 0.0 1011298
05:00+4wsw4796100 0.0 1012234
08:00+3nnw5896100 0.1 1013341
11:00+1n6894100 0.3 1014482
14:00+1n6894100 1.3 1015517
17:00+1n6959100 0.3 1016775
20:000nnw4865100 0.3 1019353